This demonstration page uses our WeatherBlox Daily Observations layout. Learn more.

Left ArrowRight Arrow

Hourly Observations for August 29, 2022

Temp ( °F °C ) Dew Point ( °F °C ) Humidity (%) Winds ( mph kmh ) Pressure ( in mb ) Visibility ( mi km ) Precip ( " mm )
12:51 am 00:51 Cloudy 75 23.9 69 20.6 82 82 SSE 5 7 30.14 1021 10 16 0.00 0.00
1:22 am 01:22 Cloudy 75 23.9 69 20.6 82 82 Calm 30.14 1021 10 16 0.00 0.00
1:42 am 01:42 Cloudy 75 23.9 69 20.6 82 82 S 3 6 30.14 1021 10 16 0.00 0.00
1:51 am 01:51 Cloudy 75 23.9 69 20.6 82 82 Calm 30.14 1021 10 16 0.00 0.00
2:51 am 02:51 Cloudy 75 23.9 70 21.1 84 84 Calm 30.13 1020 10 16 0.00 0.00
3:51 am 03:51 Cloudy 75 23.9 70 21.1 84 84 SSW 3 6 30.12 1020 10 16 0.00 0.00
4:03 am 04:03 Cloudy 75 23.9 71 21.7 88 88 SW 5 7 30.12 1020 10 16 0.00 0.00
4:51 am 04:51 Cloudy 74 23.3 70 21.1 87 87 S 3 6 30.11 1020 10 16 0.00 0.00
4:58 am 04:58 Partly Cloudy 75 23.9 71 21.7 88 88 S 5 7 30.11 1020 10 16 0.00 0.00
5:51 am 05:51 Partly Cloudy 74 23.3 71 21.7 91 91 S 3 6 30.11 1020 10 16 0.00 0.00
6:13 am 06:13 Mostly Cloudy 74 23.3 71 21.7 91 91 Calm 30.12 1020 10 16 0.00 0.00
6:51 am 06:51 Partly Cloudy 74 23.3 71 21.7 91 91 SW 3 6 30.13 1020 10 16 0.00 0.00
7:26 am 07:26 Mostly Cloudy 75 23.9 72 22.2 90 90 Calm 30.13 1020 9 14 0.00 0.00
7:51 am 07:51 Mostly Cloudy 75 23.9 72 22.2 90 90 SW 3 6 30.14 1021 10 16 0.00 0.00
8:36 am 08:36 Partly Cloudy 77 25 72 22.2 84 84 WNW 5 7 30.14 1021 10 16 0.00 0.00
8:51 am 08:51 Mostly Sunny 78 25.6 71 21.7 79 79 WSW 5 7 30.14 1021 10 16 0.00 0.00
9:51 am 09:51 Mostly Cloudy 79 26.1 70 21.1 74 74 S 5 7 30.13 1020 10 16 0.00 0.00
10:51 am 10:51 Cloudy 82 27.8 70 21.1 67 67 SSW 8 13 30.12 1020 10 16 0.00 0.00
11:51 am 11:51 Cloudy 83 28.3 69 20.6 63 63 SSW 10 17 30.11 1020 10 16 0.00 0.00
12:51 pm 12:51 Mostly Cloudy 84 28.9 69 20.6 61 61 SSE 8 13 30.09 1019 10 16 0.00 0.00
1:51 pm 13:51 Mostly Sunny 86 30 68 20 55 55 WSW 7 11 30.06 1018 10 16 0.00 0.00
2:51 pm 14:51 Sunny 87 30.6 69 20.6 55 55 VRB 6 9 30.05 1018 10 16 0.00 0.00
3:51 pm 15:51 Sunny 87 30.6 69 20.6 55 55 S 12 19 30.03 1017 10 16 0.00 0.00
4:51 pm 16:51 Sunny 84 28.9 70 21.1 63 63 S 13 20 30.01 1016 10 16 0.00 0.00
5:51 pm 17:51 Sunny 83 28.3 69 20.6 63 63 S 10 17 30.01 1016 10 16 0.00 0.00
6:51 pm 18:51 Sunny 80 26.7 68 20 67 67 S 12 19 30.01 1016 10 16 0.00 0.00
7:51 pm 19:51 Clear 79 26.1 70 21.1 74 74 S 9 15 30.01 1016 10 16 0.00 0.00
8:51 pm 20:51 Clear 78 25.6 70 21.1 76 76 S 9 15 30.03 1017 10 16 0.00 0.00
9:51 pm 21:51 Clear 77 25 70 21.1 79 79 S 9 15 30.01 1016 10 16 0.00 0.00
10:51 pm 22:51 Clear 77 25 69 20.6 77 77 S 10 17 30.01 1016 10 16 0.00 0.00
11:51 pm 23:51 Clear 76 24.4 68 20 77 77 S 9 15 30.00 1016 10 16 0.00 0.00

Powered by AerisWeather